[[{"header":{"parameterUnit":"m.s-1","parameterCategory":1,"la1":30.2992,"la2":30.254,"lo1":-89.0895,"lo2":-89.0443,"dy":0.0025,"dx":0.0025,"nx":19,"ny":19,"refTime":"2026-03-18T21:00:00:Z","depth":0,"parameterNumber":2,"parameterNumberName":"U-component_of_WINDS"},"data":[0,0,0,0.4924,0.4924,0.4951,0.4951,0.4986,0.4986,0,0,0,0,0,0,0,0,0,0,0,0.4915,0.4916,0.4924,0.4924,0.4951,0.4951,0.4986,0.4986,0,0,0,0,0,0,0,0,0,0,0,0.4915,0.4916,0.4916,0.4924,0.4951,0.4951,0.4986,0.4965,0,0,0,0,0,0,0,0,0,0,0.4939,0.4932,0.4916,0.4916,0.4925,0.4951,0.4951,0.4964,0.4967,0.4973,0,0.4979,0,0.4983,0.4988,0.4988,0,0,0,0.4925,0.493,0.4937,0.4916,0.4925,0.4951,0.4939,0.4966,0.4968,0.4976,0.498,0.4981,0.4983,0.4988,0.4989,0.5024,0.5024,0,0,0.4923,0.4921,0.4935,0.4938,0.4934,0.4938,0.494,0.4967,0.4971,0.498,0.4982,0.4984,0.4989,0.4989,0.5024,0.5024,0,0,0,0.4919,0.492,0.4926,0.4937,0.4942,0.4939,0.4941,0.497,0.4972,0.4982,0.4984,0.4989,0.4989,0.5023,0.5024,0.5027,0,0,0,0.4918,0.4917,0.4925,0.4924,0.4941,0.4956,0.4943,0.497,0.4973,0.4984,0.4989,0.499,0.5023,0.5024,0.5027,0.503,0,0,0,0.4914,0.4916,0.492,0.4924,0.4935,0.4956,0.496,0.4971,0.4975,0.4988,0.499,0.5023,0.5023,0.5026,0.5029,0.5037,0,0,0,0.4909,0.4925,0.492,0.4938,0.4935,0.4957,0.4959,0.4977,0.4989,0.4989,0.5023,0.5024,0.5026,0.5029,0.5037,0.5044,0.5046,0,0,0.4927,0.4927,0.4937,0.4934,0.4956,0.4954,0.4977,0.4991,0.4996,0.5014,0.5015,0.5027,0.5029,0.5037,0.5062,0.5064,0,0,0,0.4942,0.4949,0.4956,0.4967,0.4977,0.4986,0.4996,0.5001,0.5017,0.5004,0.5032,0.5034,0.5039,0.5042,0.5044,0.5048,0.5025,0.5025,0.5025,0.4964,0.4967,0.4984,0.499,0.5,0.501,0.5018,0.5027,0.5029,0.5035,0.5041,0.5055,0.5059,0.506,0.5064,0.5044,0.5044,0.5044,0.5044,0.499,0.5001,0.5,0.5017,0.5019,0.5033,0.5043,0.5043,0.5056,0.5051,0.5056,0.5051,0.5062,0.5066,0.5045,0.5045,0.5045,0.5045,0.5045,0.5005,0.5011,0.5015,0.5029,0.504,0.5045,0.5057,0.506,0.5062,0.5067,0.5072,0.5072,0.5072,0.5069,0.5069,0.5069,0.5069,0.5069,0.5069,0.5019,0.5024,0.5033,0.5043,0.5049,0.5058,0.5066,0.5072,0.5079,0.508,0.508,0.508,0.5062,0.5058,0.507,0.507,0.507,0.507,0.507,0.5045,0.5039,0.5053,0.5059,0.507,0.5079,0.5081,0.5093,0.5098,0.5104,0.5102,0.5088,0.5089,0.5087,0.5083,0.5102,0.5102,0.5102,0.5102,0.5057,0.5057,0.5071,0.5079,0.5088,0.5091,0.5106,0.5112,0.5117,0.512,0.5118,0.5113,0.5111,0.5112,0.511,0.5107,0.5131,0.5131,0.5131,0.5073,0.5073,0.5086,0.5089,0.5097,0.5104,0.5118,0.5128,0.5132,0.5132,0.5122,0.5121,0.5113,0.511,0.5111,0.5108,0.5101,0,0]},{"header":{"parameterUnit":"m.s-1","parameterCategory":1,"la1":30.2992,"la2":30.254,"lo1":-89.0895,"lo2":-89.0443,"dy":0.0025,"dx":0.0025,"nx":19,"ny":19,"refTime":"2026-03-18T21:00:00:Z","depth":0,"parameterNumber":3,"parameterNumberName":"V-component_of_WINDS"},"data":[0,0,0,3.0419,3.0417,3.031,3.031,3.0167,3.0166,0,0,0,0,0,0,0,0,0,0,0,3.045,3.045,3.0419,3.0417,3.031,3.031,3.0168,3.0166,0,0,0,0,0,0,0,0,0,0,0,3.0451,3.045,3.0449,3.0416,3.031,3.031,3.0168,3.025,0,0,0,0,0,0,0,0,0,0,3.0354,3.0383,3.045,3.0449,3.0416,3.0311,3.031,3.0254,3.0245,3.0214,0,3.019,0,3.0176,3.0156,3.0156,0,0,0,3.0416,3.0391,3.0363,3.0448,3.0415,3.0311,3.0358,3.0249,3.0238,3.0202,3.0188,3.0183,3.0174,3.0156,3.0155,2.9989,2.9988,0,0,3.0422,3.043,3.037,3.0356,3.0376,3.0362,3.0355,3.0242,3.0226,3.0188,3.018,3.0171,3.0155,3.0153,2.999,2.9989,0,0,0,3.0439,3.0434,3.0409,3.0362,3.0344,3.0358,3.0351,3.0231,3.0223,3.0178,3.017,3.0154,3.0152,2.9991,2.9989,2.9961,0,0,0,3.0443,3.0444,3.0412,3.0416,3.0346,3.0287,3.0342,3.023,3.0217,3.017,3.0154,3.0151,2.9991,2.999,2.9963,2.9944,0,0,0,3.0457,3.0446,3.0431,3.0416,3.0371,3.0288,3.0273,3.0227,3.0212,3.0156,3.015,2.9992,2.999,2.9965,2.9948,2.9901,0,0,0,3.0474,3.0406,3.0431,3.0351,3.0372,3.0274,3.0274,3.0199,3.0147,3.0153,2.9991,2.999,2.9966,2.995,2.9904,2.9862,2.9847,0,0,3.0393,3.0397,3.0349,3.0368,3.0267,3.0289,3.0182,3.0126,3.0111,3.003,3.0026,2.9962,2.9948,2.9902,2.9761,2.9748,0,0,0,3.0326,3.0292,3.0263,3.0216,3.0174,3.0134,3.0094,3.0072,3.0003,3.0073,2.9934,2.9925,2.9898,2.9877,2.9867,2.9841,2.9981,2.9982,2.9982,3.022,3.0208,3.0127,3.0102,3.0056,3.0016,2.9976,2.994,2.994,2.9907,2.9882,2.9798,2.9774,2.9766,2.974,2.9861,2.9861,2.9861,2.9861,3.0096,3.0045,3.0048,2.9972,2.9958,2.9892,2.985,2.9852,2.9786,2.9816,2.9791,2.9822,2.9753,2.9729,2.9859,2.9859,2.986,2.986,2.986,3.0023,2.9996,2.9974,2.9904,2.9851,2.9828,2.9765,2.9755,2.9744,2.972,2.969,2.9691,2.9687,2.9708,2.9707,2.9707,2.9707,2.9707,2.9706,2.9954,2.993,2.988,2.983,2.9798,2.9755,2.9714,2.9681,2.9641,2.9638,2.9638,2.9638,2.9751,2.9777,2.9702,2.9703,2.9703,2.9704,2.9704,2.9828,2.9855,2.9778,2.9747,2.9686,2.9633,2.9622,2.9556,2.9527,2.9496,2.9503,2.9589,2.959,2.9599,2.962,2.9508,2.9508,2.9508,2.9508,2.9764,2.9766,2.9684,2.9633,2.9583,2.9566,2.9475,2.9442,2.9412,2.9392,2.9408,2.9437,2.9446,2.9442,2.9454,2.9473,2.9327,2.9327,2.9326,2.9684,2.9681,2.9606,2.9581,2.9533,2.9491,2.9404,2.9343,2.9315,2.9319,2.9376,2.9384,2.9431,2.9447,2.9449,2.9468,2.9504,0,0]}]]